IBE07BV LEMD-EGLL

Flight info

Callsign IBE07BV
Flight time 1h 43m
Altitude 38000
Route SIE6L SIE N858 DGO N867 NENEM DCT DIDIG UP87 ROXOG ROXOG1H
Aircraft A346/H-SDE2E3FGHIJ3J4J5M1RWXY/LB1D1

Departure

Time 2026-05-06 20:56
Airport Adolfo Suárez Madrid–Barajas Airport (LEMD)

Arrival

Time 2026-05-06 22:39
Airport London Heathrow Airport (EGLL)
Time Latitude Longitude Altitude Speed Heading
2026-05-06 20:40 40.49058 -3.56882 1985 ft 0 kts 89°
2026-05-06 20:44 40.49058 -3.56896 1985 ft 4 kts 88°
2026-05-06 20:45 40.49056 -3.56930 1986 ft 4 kts 84°
2026-05-06 20:45 40.49054 -3.56965 1988 ft 4 kts 85°
2026-05-06 20:45 40.49056 -3.56956 1987 ft 4 kts 72°
2026-05-06 20:45 40.49052 -3.56963 1987 ft 4 kts 60°
2026-05-06 20:46 40.49042 -3.56991 1988 ft 4 kts 80°
2026-05-06 20:46 40.49043 -3.57011 1986 ft 4 kts 121°
2026-05-06 20:46 40.49001 -3.56965 1987 ft 1 kts 317°
2026-05-06 20:46 40.48999 -3.56962 1986 ft 0 kts 317°
2026-05-06 20:52 40.49005 -3.56969 1987 ft 3 kts 318°
2026-05-06 20:52 40.49029 -3.56997 1988 ft 6 kts 318°
2026-05-06 20:53 40.49053 -3.57040 1991 ft 6 kts 292°
2026-05-06 20:53 40.49061 -3.57099 1989 ft 7 kts 275°
2026-05-06 20:53 40.49065 -3.57164 1990 ft 7 kts 273°
2026-05-06 20:53 40.49068 -3.57236 1991 ft 8 kts 273°
2026-05-06 20:54 40.49083 -3.57312 1994 ft 9 kts 297°
2026-05-06 20:54 40.49122 -3.57384 1995 ft 11 kts 314°
2026-05-06 20:54 40.49189 -3.57441 1995 ft 13 kts 345°
2026-05-06 20:54 40.49228 -3.57448 1994 ft 0 kts 356°
2026-05-06 20:55 40.49253 -3.57450 1993 ft 16 kts 356°
2026-05-06 20:55 40.49603 -3.57463 1994 ft 83 kts 354°
2026-05-06 20:55 40.50393 -3.57466 2001 ft 142 kts
2026-05-06 20:56 40.51547 -3.57489 2062 ft 182 kts 342°
2026-05-06 20:56 40.52804 -3.57756 2824 ft 173 kts 352°
2026-05-06 20:56 40.53982 -3.57872 3580 ft 173 kts
2026-05-06 20:56 40.55241 -3.57833 4066 ft 188 kts 350°
2026-05-06 20:57 40.56352 -3.58728 4579 ft 195 kts 302°
2026-05-06 20:57 40.56901 -3.60395 5127 ft 199 kts 297°
2026-05-06 20:57 40.57802 -3.61793 5574 ft 209 kts 322°
2026-05-06 20:57 40.59048 -3.62926 5953 ft 225 kts 326°
2026-05-06 20:58 40.60381 -3.64134 6388 ft 239 kts 324°
2026-05-06 20:58 40.61756 -3.65482 6886 ft 252 kts 322°
2026-05-06 20:58 40.63152 -3.66914 7623 ft 254 kts 326°
2026-05-06 20:58 40.64778 -3.67774 8385 ft 256 kts 356°
2026-05-06 20:59 40.65970 -3.67745 8791 ft 263 kts
2026-05-06 20:59 40.67842 -3.67455 9266 ft 280 kts
2026-05-06 20:59 40.69827 -3.67120 9831 ft 293 kts
2026-05-06 20:59 40.71872 -3.66787 10537 ft 300 kts
2026-05-06 21:00 40.74002 -3.66455 11055 ft 316 kts
2026-05-06 21:00 40.76252 -3.66117 11538 ft 335 kts
2026-05-06 21:00 40.78631 -3.65768 11985 ft 353 kts
2026-05-06 21:00 40.81142 -3.65403 12400 ft 372 kts
2026-05-06 21:01 40.83779 -3.65022 12819 ft 390 kts
2026-05-06 21:01 40.86521 -3.64627 13502 ft 398 kts
2026-05-06 21:01 40.89293 -3.64225 14288 ft 402 kts
2026-05-06 21:01 40.92086 -3.63818 15083 ft 406 kts
2026-05-06 21:02 40.94910 -3.63406 15857 ft 410 kts
2026-05-06 21:02 40.97764 -3.62992 16627 ft 414 kts
2026-05-06 21:02 41.00644 -3.62573 17382 ft 419 kts
2026-05-06 21:02 41.03518 -3.62156 18132 ft 423 kts
2026-05-06 21:03 41.06463 -3.61729 18788 ft 427 kts
2026-05-06 21:03 41.09438 -3.61301 19459 ft 431 kts
2026-05-06 21:03 41.12432 -3.60865 20127 ft 435 kts
2026-05-06 21:03 41.15452 -3.60418 20787 ft 439 kts
2026-05-06 21:04 41.18479 -3.59752 21420 ft 444 kts 10°
2026-05-06 21:04 41.21484 -3.58704 22046 ft 449 kts 15°
2026-05-06 21:04 41.24434 -3.57259 22658 ft 455 kts 21°
2026-05-06 21:04 41.27299 -3.55415 23271 ft 460 kts 27°
2026-05-06 21:05 41.30073 -3.53243 23820 ft 465 kts 29°
2026-05-06 21:05 41.32897 -3.51114 24353 ft 467 kts 26°
2026-05-06 21:05 41.35836 -3.49258 24901 ft 469 kts 22°
2026-05-06 21:05 41.38838 -3.47530 25424 ft 472 kts 21°
2026-05-06 21:06 41.41883 -3.45840 25887 ft 476 kts 21°
2026-05-06 21:06 41.44959 -3.44155 26383 ft 480 kts 21°
2026-05-06 21:06 41.48054 -3.42461 26879 ft 483 kts 21°
2026-05-06 21:06 41.51173 -3.40748 27375 ft 486 kts 21°
2026-05-06 21:07 41.54314 -3.39019 27918 ft 488 kts 21°
2026-05-06 21:07 41.57453 -3.37288 28529 ft 488 kts 21°
2026-05-06 21:07 41.60585 -3.35558 29303 ft 485 kts 21°
2026-05-06 21:07 41.63698 -3.33837 30066 ft 483 kts 21°
2026-05-06 21:08 41.66800 -3.32118 30666 ft 482 kts 21°
2026-05-06 21:08 41.69886 -3.30407 31213 ft 481 kts 21°
2026-05-06 21:08 41.72972 -3.28695 31770 ft 481 kts 20°
2026-05-06 21:08 41.76023 -3.26999 32313 ft 480 kts 20°
2026-05-06 21:09 41.79150 -3.25261 32877 ft 479 kts 20°
2026-05-06 21:09 41.82230 -3.23549 33427 ft 479 kts 20°
2026-05-06 21:09 41.85266 -3.21859 33953 ft 478 kts 20°
2026-05-06 21:09 41.88336 -3.20148 34414 ft 478 kts 20°
2026-05-06 21:10 41.91409 -3.18433 34816 ft 478 kts 20°
2026-05-06 21:10 41.94485 -3.16715 35221 ft 479 kts 20°
2026-05-06 21:10 41.97560 -3.14996 35624 ft 478 kts 20°
2026-05-06 21:10 42.00632 -3.13276 36046 ft 478 kts 20°
2026-05-06 21:11 42.03702 -3.11556 36396 ft 478 kts 20°
2026-05-06 21:11 42.06782 -3.09829 36663 ft 480 kts 20°
2026-05-06 21:11 42.09878 -3.08092 36904 ft 483 kts 20°
2026-05-06 21:11 42.12991 -3.06343 37150 ft 485 kts 20°
2026-05-06 21:12 42.16111 -3.04587 37423 ft 487 kts 20°
2026-05-06 21:12 42.19236 -3.02827 37686 ft 488 kts 20°
2026-05-06 21:12 42.22381 -3.01054 37925 ft 489 kts 20°
2026-05-06 21:12 42.25524 -2.99280 38026 ft 492 kts 20°
2026-05-06 21:13 42.28683 -2.97494 38028 ft 492 kts 20°
2026-05-06 21:13 42.35009 -2.93912 38034 ft 493 kts 20°
2026-05-06 21:14 42.41477 -2.90955 38042 ft 489 kts 11°
2026-05-06 21:14 42.48176 -2.89494 38039 ft 484 kts
2026-05-06 21:15 42.54874 -2.89561 38042 ft 480 kts 351°
2026-05-06 21:15 42.61368 -2.90594 38043 ft 479 kts 349°
2026-05-06 21:16 42.67721 -2.91689 38046 ft 480 kts 349°
2026-05-06 21:16 42.74348 -2.92811 38043 ft 480 kts 349°
2026-05-06 21:17 42.80973 -2.93919 38043 ft 480 kts 349°
2026-05-06 21:17 42.87603 -2.95025 38045 ft 480 kts 350°
2026-05-06 21:18 42.94186 -2.96124 38044 ft 480 kts 349°
2026-05-06 21:18 43.00810 -2.97234 38058 ft 480 kts 350°
2026-05-06 21:19 43.07438 -2.98345 38058 ft 480 kts 350°
2026-05-06 21:19 43.14071 -2.99458 38057 ft 480 kts 350°
2026-05-06 21:20 43.20685 -3.00573 38070 ft 480 kts 350°
2026-05-06 21:20 43.27313 -3.01692 38057 ft 479 kts 350°
2026-05-06 21:21 43.33930 -3.02810 38056 ft 479 kts 350°
2026-05-06 21:21 43.40554 -3.03933 38066 ft 479 kts 350°
2026-05-06 21:22 43.47163 -3.05056 38049 ft 478 kts 350°
2026-05-06 21:22 43.53760 -3.06180 38050 ft 479 kts 350°
2026-05-06 21:23 43.60353 -3.07305 38053 ft 479 kts 351°
2026-05-06 21:23 43.66959 -3.08436 38039 ft 478 kts 351°
2026-05-06 21:24 43.73555 -3.09564 38033 ft 478 kts 351°
2026-05-06 21:24 43.80154 -3.10698 38041 ft 478 kts 351°
2026-05-06 21:25 43.86703 -3.11825 38036 ft 477 kts 351°
2026-05-06 21:25 43.93289 -3.12962 38038 ft 477 kts 351°
2026-05-06 21:26 43.99916 -3.13704 38048 ft 479 kts 357°
2026-05-06 21:26 44.06559 -3.13235 38042 ft 480 kts
2026-05-06 21:27 44.13133 -3.11507 38039 ft 483 kts 13°
2026-05-06 21:27 44.19575 -3.08808 38048 ft 483 kts 15°
2026-05-06 21:28 44.25984 -3.05972 38037 ft 483 kts 15°
2026-05-06 21:28 44.32342 -3.03166 38036 ft 483 kts 15°
2026-05-06 21:29 44.38746 -3.00340 38042 ft 482 kts 15°
2026-05-06 21:29 44.45140 -2.97525 38035 ft 482 kts 15°
2026-05-06 21:30 44.51421 -2.94755 38034 ft 482 kts 15°
2026-05-06 21:30 44.57769 -2.91951 38035 ft 482 kts 15°
2026-05-06 21:31 44.64158 -2.89124 38031 ft 481 kts 16°
2026-05-06 21:31 44.70548 -2.86289 38032 ft 481 kts 16°
2026-05-06 21:32 44.76927 -2.83451 38041 ft 481 kts 16°
2026-05-06 21:32 44.86510 -2.79177 38028 ft 481 kts 16°
2026-05-06 21:33 44.92857 -2.76338 38040 ft 481 kts 16°
2026-05-06 21:33 44.99240 -2.73477 38036 ft 481 kts 16°
2026-05-06 21:34 45.05610 -2.70614 38030 ft 481 kts 16°
2026-05-06 21:34 45.11985 -2.67742 38031 ft 481 kts 16°
2026-05-06 21:35 45.18356 -2.64866 38037 ft 480 kts 16°
2026-05-06 21:35 45.24710 -2.61991 38028 ft 479 kts 16°
2026-05-06 21:36 45.31057 -2.59112 38027 ft 479 kts 16°
2026-05-06 21:36 45.37414 -2.56222 38033 ft 479 kts 16°
2026-05-06 21:37 45.43754 -2.53333 38027 ft 479 kts 16°
2026-05-06 21:37 45.50101 -2.50433 38027 ft 479 kts 16°
2026-05-06 21:38 45.56394 -2.47551 38031 ft 479 kts 16°
2026-05-06 21:38 45.62735 -2.44641 38022 ft 478 kts 16°
2026-05-06 21:39 45.69067 -2.41727 38022 ft 478 kts 16°
2026-05-06 21:39 45.75409 -2.38803 38033 ft 478 kts 16°
2026-05-06 21:40 45.81723 -2.35886 38021 ft 478 kts 16°
2026-05-06 21:40 45.88036 -2.32959 38021 ft 477 kts 16°
2026-05-06 21:41 45.94351 -2.30030 38022 ft 477 kts 16°
2026-05-06 21:41 46.00651 -2.27098 38023 ft 476 kts 16°
2026-05-06 21:42 46.07123 -2.24563 38017 ft 475 kts 10°
2026-05-06 21:42 46.13618 -2.22867 38022 ft 474 kts
2026-05-06 21:43 46.17707 -2.21887 36979 ft 474 kts
2026-05-06 21:43 46.19484 -2.21470 37072 ft 468 kts
2026-05-06 21:44 46.22655 -2.20719 37586 ft 459 kts
2026-05-06 21:44 46.25810 -2.19952 37843 ft 458 kts
2026-05-06 21:44 46.32045 -2.18418 37987 ft 458 kts
2026-05-06 21:45 46.38351 -2.16866 38009 ft 458 kts
2026-05-06 21:45 46.44630 -2.15319 38014 ft 458 kts
2026-05-06 21:46 46.50912 -2.13769 38014 ft 458 kts
2026-05-06 21:46 46.57186 -2.12218 38015 ft 457 kts
2026-05-06 21:47 46.63467 -2.10662 38015 ft 457 kts
2026-05-06 21:47 46.69741 -2.09103 38015 ft 457 kts
2026-05-06 21:48 46.76047 -2.07534 38015 ft 457 kts
2026-05-06 21:48 46.82306 -2.05972 38015 ft 458 kts
2026-05-06 21:49 46.87523 -2.04668 38015 ft 458 kts
2026-05-06 21:49 46.93800 -2.03097 38015 ft 458 kts
2026-05-06 21:50 47.01092 -2.01266 38015 ft 458 kts
2026-05-06 21:50 47.07369 -1.99707 38014 ft 458 kts
2026-05-06 21:51 47.12587 -1.98417 38015 ft 458 kts
2026-05-06 21:51 47.18867 -1.96860 38014 ft 458 kts
2026-05-06 21:52 47.25033 -1.95326 38009 ft 440 kts
2026-05-06 21:52 47.31062 -1.93940 38011 ft 436 kts
2026-05-06 21:53 47.37106 -1.93361 38017 ft 438 kts
2026-05-06 21:53 47.43304 -1.93700 38020 ft 453 kts 356°
2026-05-06 21:54 47.49625 -1.94406 38016 ft 457 kts 356°
2026-05-06 21:54 47.56060 -1.95041 38014 ft 458 kts 358°
2026-05-06 21:55 47.62418 -1.94739 38015 ft 458 kts
2026-05-06 21:55 47.68708 -1.93249 38015 ft 458 kts 13°
2026-05-06 21:56 47.74850 -1.90613 38015 ft 458 kts 19°
2026-05-06 21:56 47.80874 -1.87527 38015 ft 458 kts 19°
2026-05-06 21:57 47.86905 -1.84423 38014 ft 458 kts 19°
2026-05-06 21:57 47.92927 -1.81336 38014 ft 458 kts 19°
2026-05-06 21:58 47.98970 -1.78270 38013 ft 458 kts 17°
2026-05-06 21:58 48.05135 -1.75899 38014 ft 458 kts 11°
2026-05-06 21:59 48.11440 -1.74545 38014 ft 458 kts
2026-05-06 21:59 48.17806 -1.74206 38015 ft 458 kts 360°
2026-05-06 22:00 48.24136 -1.74293 38014 ft 458 kts 359°
2026-05-06 22:00 48.30512 -1.74395 38014 ft 458 kts 359°
2026-05-06 22:01 48.36894 -1.74483 38014 ft 458 kts 359°
2026-05-06 22:01 48.43264 -1.74564 38014 ft 458 kts 359°
2026-05-06 22:02 48.49653 -1.74644 38015 ft 458 kts 360°
2026-05-06 22:02 48.56048 -1.74724 38015 ft 458 kts 360°
2026-05-06 22:03 48.62419 -1.74804 38015 ft 458 kts 360°
2026-05-06 22:03 48.68784 -1.74884 38015 ft 457 kts 359°
2026-05-06 22:04 48.75150 -1.74965 38015 ft 457 kts 359°
2026-05-06 22:04 48.81475 -1.75047 38015 ft 457 kts 359°
2026-05-06 22:05 48.87844 -1.75130 38015 ft 457 kts 359°
2026-05-06 22:05 48.94214 -1.75117 38015 ft 457 kts
2026-05-06 22:06 49.00581 -1.74843 37847 ft 458 kts
2026-05-06 22:06 49.03758 -1.74700 37588 ft 455 kts
2026-05-06 22:06 49.06915 -1.74567 37342 ft 453 kts
2026-05-06 22:07 49.10056 -1.74441 37100 ft 450 kts
2026-05-06 22:07 49.13177 -1.74319 36840 ft 447 kts
2026-05-06 22:07 49.16283 -1.74199 36589 ft 447 kts
2026-05-06 22:07 49.17701 -1.74144 36476 ft 447 kts
2026-05-06 22:08 49.20806 -1.74025 36226 ft 446 kts
2026-05-06 22:08 49.23912 -1.73907 35977 ft 446 kts
2026-05-06 22:08 49.27024 -1.73788 35728 ft 447 kts
2026-05-06 22:08 49.30130 -1.73670 35475 ft 447 kts
2026-05-06 22:09 49.33245 -1.73551 35224 ft 448 kts
2026-05-06 22:09 49.36318 -1.73434 34975 ft 448 kts
2026-05-06 22:09 49.39441 -1.73315 34731 ft 449 kts
2026-05-06 22:09 49.42568 -1.73196 34475 ft 450 kts
2026-05-06 22:10 49.45696 -1.72931 34224 ft 450 kts
2026-05-06 22:10 49.48814 -1.72342 33971 ft 451 kts
2026-05-06 22:10 49.51926 -1.71672 33719 ft 452 kts
2026-05-06 22:10 49.55036 -1.70998 33459 ft 452 kts
2026-05-06 22:11 49.58156 -1.70334 33220 ft 453 kts
2026-05-06 22:11 49.61279 -1.69682 32960 ft 453 kts
2026-05-06 22:11 49.64413 -1.69036 32706 ft 454 kts
2026-05-06 22:11 49.67542 -1.68396 32464 ft 454 kts
2026-05-06 22:12 49.70674 -1.67757 32219 ft 454 kts
2026-05-06 22:12 49.73813 -1.67118 31966 ft 455 kts
2026-05-06 22:12 49.76956 -1.66478 31713 ft 455 kts
2026-05-06 22:12 49.80095 -1.65838 31463 ft 456 kts
2026-05-06 22:13 49.83247 -1.65194 31205 ft 457 kts
2026-05-06 22:13 49.86400 -1.64550 30879 ft 457 kts
2026-05-06 22:13 49.89554 -1.63905 30435 ft 458 kts
2026-05-06 22:13 49.92722 -1.63257 29864 ft 459 kts
2026-05-06 22:14 49.95884 -1.62609 29231 ft 459 kts
2026-05-06 22:14 49.99053 -1.61959 28568 ft 460 kts
2026-05-06 22:14 50.02224 -1.61308 27882 ft 460 kts
2026-05-06 22:14 50.05400 -1.60655 27281 ft 459 kts
2026-05-06 22:15 50.08540 -1.60008 26877 ft 452 kts
2026-05-06 22:15 50.11640 -1.59366 26442 ft 447 kts
2026-05-06 22:15 50.14710 -1.58729 26011 ft 442 kts
2026-05-06 22:15 50.17740 -1.58099 25579 ft 438 kts
2026-05-06 22:16 50.20743 -1.57474 25144 ft 433 kts
2026-05-06 22:16 50.23716 -1.56807 24711 ft 429 kts
2026-05-06 22:16 50.26639 -1.55918 24278 ft 426 kts 12°
2026-05-06 22:16 50.29500 -1.54796 23842 ft 422 kts 15°
2026-05-06 22:17 50.32306 -1.53485 23417 ft 419 kts 17°
2026-05-06 22:17 50.35072 -1.52125 22993 ft 416 kts 17°
2026-05-06 22:17 50.37789 -1.50775 22577 ft 412 kts 18°
2026-05-06 22:17 50.40516 -1.49421 22156 ft 409 kts 18°
2026-05-06 22:18 50.43223 -1.48082 21738 ft 406 kts 17°
2026-05-06 22:18 50.45912 -1.46757 21315 ft 404 kts 17°
2026-05-06 22:18 50.48581 -1.45441 20898 ft 401 kts 17°
2026-05-06 22:18 50.51228 -1.44088 20482 ft 398 kts 19°
2026-05-06 22:19 50.53799 -1.42513 20065 ft 395 kts 23°
2026-05-06 22:19 50.56288 -1.40696 19636 ft 393 kts 27°
2026-05-06 22:19 50.58732 -1.38662 19211 ft 391 kts 28°
2026-05-06 22:19 50.61126 -1.36604 18782 ft 389 kts 28°
2026-05-06 22:20 50.63508 -1.34543 18360 ft 386 kts 28°
2026-05-06 22:20 50.65859 -1.32511 17952 ft 384 kts 28°
2026-05-06 22:20 50.68190 -1.30500 17543 ft 381 kts 28°
2026-05-06 22:20 50.70514 -1.28494 17134 ft 379 kts 28°
2026-05-06 22:21 50.72822 -1.26501 16736 ft 377 kts 28°
2026-05-06 22:21 50.75115 -1.24516 16318 ft 375 kts 29°
2026-05-06 22:21 50.77349 -1.22407 15891 ft 373 kts 32°
2026-05-06 22:21 50.79530 -1.20190 15480 ft 371 kts 33°
2026-05-06 22:22 50.81687 -1.17962 15068 ft 370 kts 33°
2026-05-06 22:22 50.83856 -1.15717 14653 ft 368 kts 33°
2026-05-06 22:22 50.85989 -1.13509 14236 ft 366 kts 33°
2026-05-06 22:22 50.88104 -1.11319 13808 ft 364 kts 33°
2026-05-06 22:23 50.90206 -1.09144 13583 ft 355 kts 33°
2026-05-06 22:23 50.92238 -1.07038 13466 ft 342 kts 33°
2026-05-06 22:23 50.94195 -1.05004 13348 ft 330 kts 33°
2026-05-06 22:23 50.96084 -1.03036 13243 ft 319 kts 33°
2026-05-06 22:24 50.97905 -1.01138 13133 ft 307 kts 33°
2026-05-06 22:24 50.99631 -0.99245 13025 ft 296 kts 38°
2026-05-06 22:24 51.01169 -0.97156 12916 ft 287 kts 44°
2026-05-06 22:24 51.02547 -0.94861 12588 ft 286 kts 48°
2026-05-06 22:25 51.03870 -0.92511 12295 ft 284 kts 49°
2026-05-06 22:25 51.05178 -0.90168 12015 ft 282 kts 49°
2026-05-06 22:25 51.06472 -0.87852 11737 ft 279 kts 49°
2026-05-06 22:25 51.07757 -0.85553 11465 ft 277 kts 49°
2026-05-06 22:26 51.09033 -0.83274 11194 ft 274 kts 49°
2026-05-06 22:26 51.10316 -0.80981 11017 ft 282 kts 49°
2026-05-06 22:26 51.11632 -0.78633 11010 ft 285 kts 48°
2026-05-06 22:26 51.12950 -0.76280 10906 ft 281 kts 49°
2026-05-06 22:27 51.14255 -0.73947 10500 ft 282 kts 49°
2026-05-06 22:27 51.15599 -0.71541 10128 ft 281 kts 49°
2026-05-06 22:27 51.16898 -0.69212 9803 ft 280 kts 49°
2026-05-06 22:27 51.18187 -0.66900 9467 ft 278 kts 49°
2026-05-06 22:28 51.19467 -0.64602 9207 ft 274 kts 49°
2026-05-06 22:28 51.20722 -0.62343 8947 ft 270 kts 49°
2026-05-06 22:28 51.21957 -0.60119 8696 ft 266 kts 49°
2026-05-06 22:28 51.23173 -0.57925 8443 ft 262 kts 49°
2026-05-06 22:29 51.24372 -0.55759 8187 ft 258 kts 49°
2026-05-06 22:29 51.25549 -0.53629 7970 ft 254 kts 49°
2026-05-06 22:29 51.26708 -0.51534 7721 ft 250 kts 49°
2026-05-06 22:29 51.27954 -0.49641 7442 ft 247 kts 27°
2026-05-06 22:30 51.29595 -0.49078 7167 ft 243 kts 353°
2026-05-06 22:30 51.31121 -0.50040 6993 ft 234 kts 320°
2026-05-06 22:30 51.32089 -0.52081 7013 ft 232 kts 291°
2026-05-06 22:30 51.32597 -0.54536 7019 ft 233 kts 287°
2026-05-06 22:31 51.33060 -0.57034 7002 ft 232 kts 287°
2026-05-06 22:31 51.33531 -0.59528 7002 ft 232 kts 287°
2026-05-06 22:31 51.34009 -0.61998 7013 ft 232 kts 288°
2026-05-06 22:31 51.34495 -0.64462 7011 ft 232 kts 288°
2026-05-06 22:32 51.34669 -0.65333 7003 ft 232 kts 288°
2026-05-06 22:32 51.35107 -0.67498 6859 ft 228 kts 288°
2026-05-06 22:32 51.35605 -0.69932 6522 ft 230 kts 286°
2026-05-06 22:33 51.36091 -0.72375 6255 ft 229 kts 287°
2026-05-06 22:33 51.36573 -0.74782 6049 ft 225 kts 287°
2026-05-06 22:33 51.37192 -0.77057 5825 ft 221 kts 302°
2026-05-06 22:33 51.38171 -0.78924 5455 ft 219 kts 327°
2026-05-06 22:34 51.39579 -0.79703 5078 ft 216 kts
2026-05-06 22:34 51.41061 -0.79497 4689 ft 214 kts
2026-05-06 22:34 51.42539 -0.79231 4309 ft 213 kts
2026-05-06 22:34 51.43988 -0.78836 3953 ft 213 kts 28°
2026-05-06 22:35 51.45036 -0.77285 3765 ft 207 kts 54°
2026-05-06 22:35 51.45843 -0.75418 3564 ft 201 kts 57°
2026-05-06 22:35 51.46532 -0.73494 3347 ft 197 kts 65°
2026-05-06 22:35 51.47000 -0.71443 3115 ft 193 kts 73°
2026-05-06 22:36 51.47345 -0.69413 2940 ft 178 kts 78°
2026-05-06 22:36 51.47535 -0.67544 2928 ft 164 kts 84°
2026-05-06 22:36 51.47640 -0.65713 2938 ft 163 kts 86°
2026-05-06 22:36 51.47701 -0.63925 2930 ft 157 kts 88°
2026-05-06 22:37 51.47721 -0.62183 2933 ft 154 kts 90°
2026-05-06 22:37 51.47724 -0.60461 2934 ft 154 kts 90°
2026-05-06 22:37 51.47727 -0.58707 2546 ft 158 kts 90°
2026-05-06 22:37 51.47728 -0.56907 2002 ft 167 kts 90°
2026-05-06 22:38 51.47729 -0.54909 1260 ft 187 kts 90°
2026-05-06 22:38 51.47741 -0.52799 701 ft 190 kts 90°
2026-05-06 22:38 51.47753 -0.50721 362 ft 182 kts 89°
2026-05-06 22:38 51.47756 -0.49399 243 ft 171 kts 89°
2026-05-06 22:39 51.47755 -0.46983 100 ft 135 kts 91°
2026-05-06 22:39 51.47762 -0.46188 96 ft 85 kts 77°
2026-05-06 22:39 51.47783 -0.45670 96 ft 28 kts 101°
2026-05-06 22:39 51.47739 -0.45513 97 ft 6 kts 134°
2026-05-06 22:40 51.47734 -0.45507 97 ft 2 kts 144°
2026-05-06 22:40 51.47714 -0.45490 96 ft 6 kts 155°
2026-05-06 22:40 51.47664 -0.45467 96 ft 9 kts 172°
2026-05-06 22:40 51.47601 -0.45489 97 ft 11 kts 207°
2026-05-06 22:41 51.47576 -0.45742 94 ft 15 kts 269°
2026-05-06 22:41 51.47582 -0.45929 97 ft 19 kts 273°
2026-05-06 22:41 51.47589 -0.46155 96 ft 22 kts 272°
2026-05-06 22:42 51.47595 -0.46413 98 ft 24 kts 272°
2026-05-06 22:42 51.47592 -0.46697 97 ft 26 kts 268°
2026-05-06 22:42 51.47582 -0.47001 98 ft 28 kts 268°
2026-05-06 22:42 51.47578 -0.47324 97 ft 29 kts 269°
2026-05-06 22:43 51.47576 -0.47659 94 ft 31 kts 270°
2026-05-06 22:43 51.47577 -0.47992 97 ft 28 kts 270°
2026-05-06 22:43 51.47578 -0.48310 97 ft 27 kts 270°
2026-05-06 22:43 51.47502 -0.48465 95 ft 17 kts 188°
2026-05-06 22:44 51.47391 -0.48473 98 ft 18 kts 181°
2026-05-06 22:44 51.47268 -0.48476 94 ft 16 kts 180°
2026-05-06 22:44 51.47176 -0.48478 95 ft 9 kts 196°
2026-05-06 22:44 51.47142 -0.48551 97 ft 8 kts 256°
2026-05-06 22:45 51.47138 -0.48594 97 ft 0 kts 263°
2026-05-06 22:46 51.47133 -0.48581 97 ft 0 kts 270°
2026-05-06 22:47 51.47247 -0.48249 97 ft 0 kts 90°